Home > Weather > Cambridge > Past weeks

Flag for Canada Weather for the Past 2 Weeks in Cambridge, Ontario, Canada

Now
45 °F

Scattered clouds.


Feels Like: 42 °F
Forecast: 35 / 56 °F
Wind: 5 mph from East

Location: Waterloo Well

Current Time: Apr 29, 2016 at 10:08:05 PM

Latest Report: Apr 29, 2016 at 9:00 PM


Visibility: 9 mi

Pressure: 30.14 "Hg

Humidity: 57%

Dew Point: 30 °F

Location of CambridgeLocation

Historic Weather in Cambridge — Graph

°F

Cambridge Temperature Yesterday

Maximum temperature yesterday: 46 °F (at 5:00 PM)
Minimum temperature yesterday: 32 °F (at 4:00 AM)
Average temperature yesterday: 40 °F

High & Low Weather Summary for the Past Weeks

 TemperatureHumidityPressure
High77 °F (Apr 18, 2:00 PM)100% (Apr 18, 6:00 AM)30.49 "Hg (Apr 18, 6:00 AM)
Low28 °F (Apr 27, 5:00 AM)20% (Apr 17, 5:03 PM)29.71 "Hg (Apr 26, 4:00 AM)
Average48 °F58%30.14 "Hg
* Reported Apr 14 8:00 PM — Apr 29 8:00 PM, Cambridge, Weather by CustomWeather, © 2016

Note: Actual official high and low records may vary slightly from our data, if they occured in-between our weather recording intervals... More about our weather records

Advertising

Cambridge Weather History for the Previous 24 Hours

Scroll right to see more
 ConditionsComfort  
Time TempWeatherWind HumidityBarometerVisibility
8:00 PM
Fri, Apr 29
48 °FOvercast.5 mph50%30.13 "Hg9 mi
7:00 PM50 °FMostly cloudy.7 mph43%30.09 "Hg9 mi
6:00 PM52 °FOvercast.2 mph41%30.09 "Hg9 mi
5:00 PM52 °FMostly cloudy.6 mph41%30.07 "Hg9 mi
4:00 PM52 °FMostly cloudy.9 mph41%30.07 "Hg9 mi
3:00 PM52 °FMostly cloudy.10 mph35%30.09 "Hg9 mi
2:00 PM48 °FOvercast.9 mph40%30.08 "Hg9 mi
1:00 PM50 °FOvercast.12 mph37%30.06 "Hg9 mi
12:00 PM46 °FOvercast.7 mph40%30.09 "Hg9 mi
11:00 AM45 °FMostly cloudy.9 mph37%30.10 "Hg9 mi
10:00 AM43 °FOvercast.13 mph39%30.09 "Hg9 mi
9:00 AM41 °FOvercast.16 mph49%30.09 "Hg9 mi
8:00 AM41 °FOvercast.17 mph45%30.08 "Hg9 mi
7:00 AM39 °FOvercast.12 mph52%30.08 "Hg9 mi
6:00 AM39 °FOvercast.12 mph56%30.07 "Hg9 mi
5:00 AM39 °FOvercast.10 mph56%30.06 "Hg9 mi
4:00 AM39 °FOvercast.10 mph61%30.06 "Hg9 mi
3:00 AM39 °FOvercast.12 mph61%30.06 "Hg9 mi
2:00 AM39 °FOvercast.8 mph61%30.08 "Hg9 mi
1:00 AM41 °FLight rain. Overcast.8 mph53%30.07 "Hg9 mi
12:00 AM41 °FOvercast.12 mph57%30.06 "Hg9 mi
11:00 PM
Thu, Apr 28
41 °FOvercast.8 mph57%30.07 "Hg9 mi
10:00 PM41 °FOvercast.7 mph53%30.06 "Hg9 mi
Weather by CustomWeather, © 2016

See weather overviewHow to use our weather pages